Location: Ashtead
(51.3000°N, 0.3000°W)
Time: 09:46:20
(UTC+00:00)

Cosmos 304 Rocket - Pass Details

Date: 26 September 2023
Orbit: 677 x 682 km, 74.0° (Epoch: 09 December)

Event Time Altitude Azimuth Distance (km) Brightness Sun altitude
Exits shadow 02:47:46 64° 68° (ENE) 761 4.1 -27.8°
Drops below altitude 10° 02:52:03 10° 28° (NNE) 2,139 7.1 -27.3°
Sets 02:54:22 0° 27° (NNE) 3,059 8.1 -27.0°
